Spokane Fairchild, WA
on Thursday, November 15, 2012

Thursday
Previous Day Next Day
Daily Summary
 ActualAverage (KGEG)Record (KGEG)
Temperature
Mean Temperature °F 36°F  
Max Temperature 41°F 42°F 60°F (1896)
Min Temperature 32°F 30°F -11°F (1955)
Degree Days
Heating Degree Days 28 29  
Month to date heating degree days 397  
Since 1 July heating degree days 1185  
Cooling Degree Days 0 0  
Month to date cooling degree days 0  
Year to date cooling degree days 450  
Moisture
Dew Point 35°F   
Average Humidity 100    
Maximum Humidity 100    
Minimum Humidity 100    
Precipitation
Precipitation 0.00 in 0.08 in 0.69 in (1915)
Month to date precipitation 1.07  
Year to date precipitation 13.03  
Snow
Snow 0.00 in 0.30 in 4.00 in (1930)
Month to date snowfall 2.2  
Since 1 July snowfall 2.3  
Since 1 September snowfall 2.3  
Snow Depth in   
Wind
Wind Speed 8 mph   
Max Wind Speed 14 mph   
Max Gust Speed mph   
Visibility 10 miles   
Events     

Key: T is trace of precipitation, MM is missing value
Source: NWS Daily Summary
Time(PST)TemperatureDew PointHumidity Pressure Visibility Wind DirectionWind SpeedGust SpeedPrecipitationEvents Conditions
12:03 AM 32.0°F 32.0°F 100% 30.31 in 7.0 miles NNE 6.9 mph - N/A   Overcast
12:23 AM 32.0°F 32.0°F 100% 30.30 in 7.0 miles NE 6.9 mph - N/A   Overcast
12:33 AM 32.0°F 32.0°F 100% 30.30 in 3.0 miles NNE 8.1 mph - N/A   Overcast
12:58 AM 33.4°F 33.4°F 100% 30.30 in 7.0 miles NNE 6.9 mph - N/A   Overcast
1:08 AM 32.0°F 32.0°F 100% 30.30 in 10.0 miles NNE 8.1 mph - N/A   Overcast
1:18 AM 32.0°F 32.0°F 100% 30.30 in 10.0 miles North 8.1 mph - N/A   Overcast
1:23 AM 32.0°F 32.0°F 100% 30.30 in 10.0 miles North 6.9 mph - N/A   Overcast
1:43 AM 32.0°F 32.0°F 100% 30.29 in 10.0 miles NNE 8.1 mph - N/A   Overcast
1:48 AM 32.0°F 32.0°F 100% 30.29 in 10.0 miles NNE 8.1 mph - N/A   Overcast
1:58 AM 33.3°F 33.3°F 100% 30.37 in 10.0 miles NNE 8.1 mph - N/A   Overcast
2:58 AM 33.1°F 33.1°F 100% 30.35 in 10.0 miles NNE 5.8 mph - N/A   Overcast
3:00 AM 32.0°F 32.0°F 100% 30.28 in 10.0 miles NNE 4.6 mph - N/A   Overcast
3:20 AM 32.0°F 32.0°F 100% 30.27 in 10.0 miles North 5.8 mph - N/A   Overcast
3:45 AM 32.0°F 32.0°F 100% 30.27 in 10.0 miles NNE 8.1 mph - N/A   Overcast
3:58 AM 33.3°F 33.3°F 100% 30.35 in 10.0 miles NNE 8.1 mph - N/A   Overcast
4:18 AM 32.0°F 32.0°F 100% 30.26 in 10.0 miles North 8.1 mph - N/A   Overcast
4:53 AM 32.0°F 32.0°F 100% 30.26 in 10.0 miles NNE 6.9 mph - N/A   Overcast
4:58 AM 33.3°F 33.3°F 100% 30.34 in 10.0 miles NE 8.1 mph - N/A   Overcast
5:08 AM 32.0°F 32.0°F 100% 30.26 in 10.0 miles NNE 9.2 mph - N/A   Overcast
5:58 AM 32.0°F 32.0°F 100% 30.33 in 10.0 miles NNE 8.1 mph - N/A   Overcast
6:08 AM 32.0°F 32.0°F 100% 30.25 in 10.0 miles NNE 9.2 mph - N/A   Overcast
6:13 AM 32.0°F 32.0°F 100% 30.25 in 10.0 miles NNE 8.1 mph - N/A   Overcast
6:43 AM 32.0°F 32.0°F 100% 30.24 in 10.0 miles North 9.2 mph - N/A   Overcast
6:58 AM 32.0°F 32.0°F 100% 30.32 in 10.0 miles NE 5.8 mph - N/A   Overcast
7:08 AM 33.8°F 33.8°F 100% 30.24 in 10.0 miles NNE 10.4 mph - N/A   Overcast
7:58 AM 33.8°F 33.8°F 100% 30.30 in 10.0 miles NNE 9.2 mph - N/A   Overcast
8:58 AM 34.7°F 34.7°F 100% 30.30 in 10.0 miles Variable 6.9 mph - N/A   Overcast
9:23 AM 35.6°F 35.6°F 100% 30.21 in 10.0 miles NE 9.2 mph - N/A   Overcast
9:48 AM 33.8°F 33.8°F 100% 30.21 in 10.0 miles NNE 11.5 mph - N/A   Overcast
9:58 AM 35.1°F 35.1°F 100% 30.27 in 10.0 miles NE 10.4 mph - N/A   Overcast
10:23 AM 37.4°F 37.4°F 100% 30.19 in 10.0 miles NE 12.7 mph - N/A   Overcast
10:48 AM 37.4°F 37.4°F 100% 30.18 in 10.0 miles NNE 10.4 mph - N/A   Mostly Cloudy
10:58 AM 36.9°F 36.9°F 100% 30.24 in 10.0 miles NE 12.7 mph - N/A   Mostly Cloudy
11:03 AM 37.4°F 37.4°F 100% 30.17 in 10.0 miles NE 12.7 mph - N/A   Scattered Clouds
11:23 AM 37.4°F 37.4°F 100% 30.15 in 10.0 miles NNE 11.5 mph - N/A   Mostly Cloudy
11:33 AM 37.4°F 37.4°F 100% 30.15 in 10.0 miles NNE 8.1 mph - N/A   Mostly Cloudy
11:58 AM 39.4°F 39.4°F 100% 30.21 in 10.0 miles NE 11.5 mph - N/A   Overcast
12:13 PM 39.2°F 39.2°F 100% 30.13 in 10.0 miles NNE 10.4 mph - N/A   Overcast
12:23 PM 39.2°F 39.2°F 100% 30.12 in 10.0 miles NNE 10.4 mph - N/A   Overcast
12:48 PM 39.2°F 39.2°F 100% 30.12 in 10.0 miles NNE 9.2 mph - N/A   Mostly Cloudy
12:58 PM 39.0°F 39.0°F 100% 30.18 in 10.0 miles NNE 9.2 mph - N/A   Mostly Cloudy
1:33 PM 39.2°F 39.2°F 100% 30.11 in 10.0 miles NNE 8.1 mph - N/A   Overcast
1:58 PM 40.3°F 40.3°F 100% 30.17 in 10.0 miles North 3.5 mph - N/A   Overcast
2:58 PM 41.0°F 41.0°F 100% 30.15 in 10.0 miles NNE 6.9 mph - N/A   Overcast
3:23 PM 39.2°F 39.2°F 100% 30.06 in 10.0 miles NNE 12.7 mph - N/A   Scattered Clouds
3:26 PM 39.2°F 39.2°F 100% 30.05 in 10.0 miles NNE 13.8 mph - N/A   Mostly Cloudy
3:39 PM 39.2°F 39.2°F 100% 30.06 in 10.0 miles North 6.9 mph - N/A   Mostly Cloudy
3:49 PM 39.2°F 39.2°F 100% 30.06 in 10.0 miles North 6.9 mph - N/A   Overcast
3:58 PM 38.5°F 38.5°F 100% 30.13 in 10.0 miles North 5.8 mph - 0.00 in   Mostly Cloudy
4:23 PM 37.4°F 37.4°F 100% 30.05 in 10.0 miles North 8.1 mph - N/A   Overcast
4:45 PM 37.4°F 37.4°F 100% 30.04 in 10.0 miles North 5.8 mph - N/A   Overcast
4:50 PM 37.4°F 37.4°F 100% 30.04 in 10.0 miles North 3.5 mph - N/A   Overcast
4:58 PM 37.8°F 37.8°F 100% 30.11 in 10.0 miles North 2.3 mph - 0.00 in   Overcast
5:18 PM 37.4°F 37.4°F 100% 30.03 in 10.0 miles NNE 5.8 mph - N/A   Overcast
5:58 PM 36.5°F 36.5°F 100% 30.09 in 10.0 miles North 6.9 mph - N/A   Overcast
6:58 PM 35.4°F 35.4°F 100% 30.08 in 10.0 miles NNE 4.6 mph - N/A   Overcast
7:58 PM 36.7°F 36.7°F 100% 30.06 in 10.0 miles NNE 5.8 mph - N/A   Overcast
8:07 PM 37.4°F 37.4°F 100% 30.00 in 10.0 miles NNE 8.1 mph - N/A   Overcast
8:20 PM 35.6°F 35.6°F 100% 29.99 in 10.0 miles NNE 6.9 mph - N/A   Overcast
8:58 PM 36.0°F 36.0°F 100% 30.05 in 10.0 miles NNE 6.9 mph - 0.00 in   Overcast
9:58 PM 34.9°F 34.9°F 100% 30.05 in 10.0 miles NE 6.9 mph - N/A   Overcast
10:58 PM 32.9°F 32.9°F 100% 30.04 in 10.0 miles NE 5.8 mph - N/A   Mostly Cloudy
11:58 PM 33.1°F 33.1°F 100% 30.04 in 10.0 miles NNE 4.6 mph - N/A   Overcast
Moon Phase
Nov. 15 Nov. 20 Nov. 28 Dec. 06 Dec. 13
Sunrise:06:56 AM (PST) Moon Rise:09:02 AM (PST)11/15
Sunset:04:13 PM (PST) Moon Set:06:05 PM (PST)11/15

Copyright © 2014 The Weather Underground, Inc.